When you browse on this site, cookies collect data to enhance your experience and personalize the content and advertising you see.
Visit our Privacy Policy to learn more. By continuing to use the site, you agree to this use of cookies and data.
  • In Italy
  • List of Countries
  • For 7 days
  • Water Temperature
  • Satellite Maps
  • Weather Map
  • Weather Widgets
  • user-avatar
    Login

    Hourly Weather Ashlan-Vershina

    Today, 20 February, Wednesday

    Time Temperature Precipitation Wind Pressure Humidity
    00:00 -13°C° 0 mm 3 mps 743 mmHg 95%
    01:00 -13°C° 0 mm 3 mps 743 mmHg 95%
    02:00 -13°C° 0 mm 3 mps 743 mmHg 96%
    03:00 -12°C° 0 mm 2 mps 743 mmHg 97%
    04:00 -10°C° 0 mm 2 mps 743 mmHg 97%
    05:00 -10°C° 0 mm 3 mps 743 mmHg 97%
    06:00 -9°C° 0 mm 3 mps 743 mmHg 97%
    07:00 -8°C° 0 mm 3 mps 743 mmHg 96%
    08:00 -8°C° 0 mm 4 mps 742 mmHg 95%
    09:00 -8°C° 0 mm 5 mps 742 mmHg 95%
    10:00 -7°C° 0 mm 5 mps 742 mmHg 94%
    11:00 -6°C° 0 mm 6 mps 741 mmHg 93%
    12:00 -6°C° 0 mm 6 mps 741 mmHg 92%
    13:00 -6°C° 0 mm 6 mps 741 mmHg 92%
    14:00 -8°C° 0 mm 6 mps 740 mmHg 91%
    15:00 -8°C° 0 mm 6 mps 740 mmHg 90%
    16:00 -8°C° 0 mm 6 mps 739 mmHg 90%
    17:00 -7°C° 0 mm 5 mps 739 mmHg 90%
    18:00 -6°C° 0 mm 5 mps 739 mmHg 89%
    19:00 -6°C° 0 mm 5 mps 739 mmHg 89%
    20:00 -6°C° 0 mm 6 mps 738 mmHg 90%
    21:00 -6°C° 0 mm 6 mps 738 mmHg 90%
    22:00 -5°C° 0.2 mm 6 mps 738 mmHg 90%
    23:00 -5°C° 0.2 mm 6 mps 737 mmHg 91%

    Tomorrow, 21 February, Thursday

    Time Temperature Precipitation Wind Pressure Humidity
    00:00 -5°C° 0.2 mm 6 mps 737 mmHg 91%
    01:00 -5°C° 0.1 mm 6 mps 737 mmHg 91%
    02:00 -4°C° 0.1 mm 6 mps 737 mmHg 91%
    03:00 -4°C° 0.1 mm 5 mps 737 mmHg 91%
    04:00 -4°C° 0.1 mm 5 mps 737 mmHg 91%
    05:00 -4°C° 0.1 mm 5 mps 737 mmHg 92%
    06:00 -4°C° 0.1 mm 5 mps 737 mmHg 92%
    07:00 -2°C° 0 mm 5 mps 737 mmHg 91%
    08:00 -2°C° 0 mm 5 mps 737 mmHg 91%
    09:00 -2°C° 0 mm 5 mps 738 mmHg 91%
    10:00 -2°C° 0 mm 5 mps 738 mmHg 92%
    11:00 -2°C° 0 mm 5 mps 738 mmHg 93%
    12:00 -2°C° 0 mm 5 mps 738 mmHg 94%
    13:00 -2°C° 0.1 mm 5 mps 738 mmHg 93%
    14:00 -2°C° 0.1 mm 5 mps 738 mmHg 92%
    15:00 -2°C° 0.1 mm 5 mps 738 mmHg 91%
    16:00 -2°C° 0.1 mm 5 mps 738 mmHg 91%
    17:00 -4°C° 0.1 mm 5 mps 738 mmHg 92%
    18:00 -3°C° 0.1 mm 4 mps 738 mmHg 92%
    19:00 -3°C° 0.1 mm 4 mps 738 mmHg 93%
    20:00 -3°C° 0.1 mm 4 mps 738 mmHg 93%
    21:00 -3°C° 0.1 mm 4 mps 738 mmHg 94%
    22:00 -3°C° 0.1 mm 4 mps 738 mmHg 94%
    23:00 -3°C° 0.1 mm 4 mps 738 mmHg 93%

    Day after tomorrow, 22 February, Friday

    Time Temperature Precipitation Wind Pressure Humidity
    00:00 -3°C° 0.1 mm 4 mps 738 mmHg 93%
    01:00 -3°C° 0 mm 4 mps 738 mmHg 93%
    02:00 -3°C° 0 mm 4 mps 738 mmHg 93%
    03:00 -3°C° 0 mm 4 mps 737 mmHg 93%
    04:00 -4°C° 0.1 mm 4 mps 737 mmHg 94%
    05:00 -4°C° 0.1 mm 4 mps 737 mmHg 94%
    06:00 -4°C° 0.1 mm 3 mps 737 mmHg 95%
    07:00 -4°C° 0.1 mm 4 mps 737 mmHg 95%
    08:00 -3°C° 0.1 mm 4 mps 737 mmHg 95%
    09:00 -3°C° 0.1 mm 4 mps 737 mmHg 95%
    10:00 -2°C° 0.4 mm 3 mps 737 mmHg 96%
    11:00 -1°C° 0.4 mm 3 mps 737 mmHg 97%
    12:00 -1°C° 0.4 mm 3 mps 737 mmHg 98%
    13:00 -1°C° 0.2 mm 3 mps 737 mmHg 98%
    14:00 -1°C° 0.2 mm 2 mps 737 mmHg 98%
    15:00 -1°C° 0.2 mm 2 mps 737 mmHg 99%
    16:00 -1°C° 0.5 mm 3 mps 738 mmHg 97%
    17:00 -1°C° 0.5 mm 3 mps 738 mmHg 96%
    18:00 -3°C° 0.5 mm 4 mps 738 mmHg 95%
    19:00 -3°C° 0.4 mm 4 mps 739 mmHg 94%
    20:00 -4°C° 0.4 mm 4 mps 739 mmHg 93%
    21:00 -5°C° 0.4 mm 5 mps 740 mmHg 92%
    22:00 -5°C° 0 mm 4 mps 740 mmHg 92%
    23:00 -7°C° 0 mm 3 mps 741 mmHg 93%

    23 February, Saturday

    Time Temperature Precipitation Wind Pressure Humidity
    00:00 -8°C° 0 mm 3 mps 741 mmHg 93%
    01:00 -10°C° 0 mm 3 mps 742 mmHg 93%
    02:00 -10°C° 0 mm 2 mps 743 mmHg 94%
    03:00 -12°C° 0 mm 2 mps 744 mmHg 94%
    04:00 -12°C° 0.1 mm 2 mps 744 mmHg 95%
    05:00 -9°C° 0.1 mm 1 mps 745 mmHg 95%
    06:00 -8°C° 0.1 mm 1 mps 746 mmHg 96%
    07:00 -8°C° 0.1 mm 2 mps 747 mmHg 95%
    08:00 -9°C° 0.1 mm 3 mps 747 mmHg 95%
    09:00 -8°C° 0.1 mm 3 mps 748 mmHg 95%
    10:00 -9°C° 0.1 mm 4 mps 749 mmHg 94%
    11:00 -8°C° 0.1 mm 4 mps 749 mmHg 94%
    12:00 -8°C° 0.1 mm 4 mps 750 mmHg 93%
    13:00 -8°C° 0.1 mm 4 mps 750 mmHg 93%
    14:00 -9°C° 0.1 mm 4 mps 751 mmHg 93%
    15:00 -9°C° 0.1 mm 4 mps 751 mmHg 92%
    16:00 -10°C° 0.1 mm 4 mps 752 mmHg 93%
    17:00 -10°C° 0.1 mm 4 mps 752 mmHg 93%
    18:00 -10°C° 0.1 mm 3 mps 753 mmHg 94%
    19:00 -12°C° 0 mm 3 mps 753 mmHg 94%
    20:00 -12°C° 0 mm 3 mps 753 mmHg 95%
    21:00 -13°C° 0 mm 3 mps 754 mmHg 95%
    22:00 -13°C° 0 mm 3 mps 754 mmHg 95%
    23:00 -13°C° 0 mm 3 mps 754 mmHg 95%

    24 February, Sunday

    Time Temperature Precipitation Wind Pressure Humidity
    00:00 -13°C° 0 mm 3 mps 754 mmHg 95%
    01:00 -14°C° 0 mm 3 mps 755 mmHg 95%
    02:00 -14°C° 0 mm 3 mps 755 mmHg 96%
    03:00 -14°C° 0 mm 3 mps 755 mmHg 96%
    04:00 -14°C° 0 mm 3 mps 755 mmHg 96%
    05:00 -14°C° 0 mm 3 mps 756 mmHg 96%
    06:00 -15°C° 0 mm 3 mps 756 mmHg 96%
    07:00 -14°C° 0 mm 3 mps 756 mmHg 95%
    08:00 -14°C° 0 mm 3 mps 756 mmHg 95%
    09:00 -14°C° 0 mm 3 mps 757 mmHg 95%
    10:00 -13°C° 0 mm 3 mps 757 mmHg 93%
    11:00 -12°C° 0 mm 3 mps 757 mmHg 91%
    12:00 -11°C° 0 mm 4 mps 757 mmHg 89%
    13:00 -11°C° 0 mm 4 mps 756 mmHg 89%
    14:00 -10°C° 0 mm 4 mps 756 mmHg 88%
    15:00 -10°C° 0 mm 4 mps 756 mmHg 88%
    16:00 -11°C° 0 mm 4 mps 756 mmHg 89%
    17:00 -11°C° 0 mm 4 mps 756 mmHg 90%
    18:00 -12°C° 0 mm 3 mps 756 mmHg 91%
    19:00 -12°C° 0 mm 4 mps 756 mmHg 92%
    20:00 -12°C° 0 mm 4 mps 755 mmHg 92%
    21:00 -12°C° 0 mm 4 mps 755 mmHg 93%
    22:00 -14°C° 0 mm 4 mps 755 mmHg 93%
    23:00 -14°C° 0 mm 4 mps 755 mmHg 94%

    25 February, Monday

    Time Temperature Precipitation Wind Pressure Humidity
    00:00 -14°C° 0 mm 4 mps 754 mmHg 94%
    01:00 -14°C° 0 mm 3 mps 754 mmHg 94%
    02:00 -14°C° 0 mm 3 mps 754 mmHg 95%
    03:00 -14°C° 0 mm 3 mps 753 mmHg 95%
    04:00 -13°C° 0 mm 3 mps 753 mmHg 95%
    05:00 -13°C° 0 mm 3 mps 752 mmHg 95%
    06:00 -14°C° 0 mm 4 mps 752 mmHg 95%
    07:00 -12°C° 0 mm 4 mps 751 mmHg 95%
    08:00 -12°C° 0 mm 4 mps 751 mmHg 95%
    09:00 -11°C° 0 mm 4 mps 750 mmHg 94%
    10:00 -10°C° 0 mm 4 mps 750 mmHg 93%
    11:00 -10°C° 0 mm 5 mps 749 mmHg 92%
    12:00 -8°C° 0 mm 5 mps 749 mmHg 91%
    13:00 -8°C° 0 mm 5 mps 748 mmHg 91%
    14:00 -7°C° 0 mm 5 mps 748 mmHg 90%
    15:00 -8°C° 0 mm 6 mps 747 mmHg 89%
    16:00 -7°C° 0 mm 5 mps 747 mmHg 90%
    17:00 -7°C° 0 mm 5 mps 747 mmHg 90%
    18:00 -7°C° 0 mm 4 mps 746 mmHg 91%
    19:00 -8°C° 0 mm 5 mps 746 mmHg 92%
    20:00 -8°C° 0 mm 5 mps 745 mmHg 92%
    21:00 -8°C° 0 mm 5 mps 745 mmHg 93%
    22:00 -8°C° 0 mm 5 mps 745 mmHg 93%
    23:00 -8°C° 0 mm 5 mps 744 mmHg 93%
    Show more